Weather History for Somerset, KY

Change the Weather History Date:

Monday, December 31, 2012

  Actual Average Record
Temperature  
Mean Temperature 31 °F -  
Max Temperature 39 °F 45 °F 69 °F (1999)
Min Temperature 23 °F 27 °F 14 °F (2001)
Degree Days  
Heating Degree Days 34    
Moisture  
Dew Point 26 °F    
Average Humidity 77    
Maximum Humidity 100    
Minimum Humidity 61    
Precipitation  
Precipitation 0.00 in - - ()
Sea Level Pressure  
Sea Level Pressure 30.26 in    
Wind  
Wind Speed 1 mph (South)    
Max Wind Speed 6 mph    
Max Gust Speed -    
Visibility 10 miles    
Events Rain    
Averages and records for this station are not official NWS values.
T = Trace of Precipitation, MM = Missing Value Source: NWS Daily Summary

Daily Weather History Graph

Daily Weather History Graph

Search for Another Location

Airport:

Trip Planner

Search our weather history database for the weather conditions in past years. The results will help you decide how hot, cold, wet, or windy it might be!

Date:

Astronomy

Dec. 31, 2012 Rise Set
Actual Time 7:51 AM EST 5:31 PM EST
Civil Twilight 7:22 AM EST 6:00 PM EST
Nautical Twilight 6:50 AM EST 6:33 PM EST
Astronomical Twilight 6:18 AM EST 7:04 PM EST
Moon 8:56 PM EST (12/31) 9:37 AM EST (12/31)
Length of Visible Light 10h 37m
Length of Day
9h 40m
Waning Gibbous, 90% of the Moon is Illuminated
Dec 31
Waning Gibbous
Jan 4
Last Quarter
Jan 11
New
Jan 18
First Quarter
Jan 26
Full

Hourly Weather History & Observations

Time (EST) Temp. Windchill Dew Point Humidity Pressure Visibility Wind Dir Wind Speed Gust Speed Precip Events Conditions
12:15 AM 26.6 °F - 24.8 °F 93% 30.38 in 7.0 mi Calm Calm - N/A   Clear
12:35 AM 26.6 °F - 23.0 °F 86% 30.38 in 10.0 mi Calm Calm - N/A   Clear
12:55 AM 24.8 °F - 23.0 °F 93% 30.37 in 10.0 mi Calm Calm - N/A   Clear
1:15 AM 24.8 °F - 23.0 °F 93% 30.37 in 7.0 mi Calm Calm - N/A   Clear
1:35 AM 24.8 °F - 23.0 °F 93% 30.37 in 7.0 mi Calm Calm - N/A   Clear
1:55 AM 24.8 °F - 23.0 °F 93% 30.37 in 10.0 mi Calm Calm - N/A   Clear
2:15 AM 23.0 °F - 21.2 °F 93% 30.36 in 10.0 mi Calm Calm - N/A   Clear
2:35 AM 23.0 °F - 23.0 °F 100% 30.35 in 10.0 mi Calm Calm - N/A   Clear
2:55 AM 23.0 °F - 23.0 °F 100% 30.35 in 10.0 mi Calm Calm - N/A   Clear
3:15 AM 24.8 °F - 23.0 °F 93% 30.35 in 10.0 mi Calm Calm - N/A   Clear
3:35 AM 26.6 °F 22.6 °F 24.8 °F 93% 30.34 in 10.0 mi South 3.5 mph - N/A   Clear
3:55 AM 26.6 °F 20.0 °F 24.8 °F 93% 30.35 in 10.0 mi South 5.8 mph - N/A   Clear
4:15 AM 28.4 °F 24.6 °F 24.8 °F 86% 30.33 in 10.0 mi South 3.5 mph - N/A   Clear
4:35 AM 28.4 °F 24.6 °F 24.8 °F 86% 30.32 in 10.0 mi South 3.5 mph - N/A   Clear
4:55 AM 28.4 °F - 24.8 °F 86% 30.32 in 10.0 mi Calm Calm - N/A   Clear
5:15 AM 30.2 °F 26.7 °F 23.0 °F 75% 30.32 in 10.0 mi South 3.5 mph - N/A   Clear
5:35 AM 30.2 °F 26.7 °F 24.8 °F 80% 30.33 in 10.0 mi South 3.5 mph - N/A   Clear
5:55 AM 30.2 °F 26.7 °F 23.0 °F 75% 30.32 in 10.0 mi South 3.5 mph - N/A   Clear
6:15 AM 30.2 °F 26.7 °F 23.0 °F 75% 30.33 in 10.0 mi South 3.5 mph - N/A   Clear
6:35 AM 30.2 °F 26.7 °F 23.0 °F 75% 30.33 in 10.0 mi South 3.5 mph - N/A   Clear
6:55 AM 30.2 °F 25.4 °F 23.0 °F 75% 30.32 in 10.0 mi South 4.6 mph - N/A   Clear
7:15 AM 30.2 °F 26.7 °F 23.0 °F 75% 30.32 in 10.0 mi South 3.5 mph - N/A   Scattered Clouds
7:35 AM 30.2 °F - 23.0 °F 75% 30.31 in 10.0 mi Calm Calm - N/A   Scattered Clouds
7:55 AM 30.2 °F - 24.8 °F 80% 30.32 in 10.0 mi Calm Calm - N/A   Clear
8:15 AM 30.2 °F - 24.8 °F 80% 30.33 in 10.0 mi Calm Calm - N/A   Clear
8:35 AM 32.0 °F - 23.0 °F 69% 30.31 in 10.0 mi Calm Calm - N/A   Scattered Clouds
8:55 AM 32.0 °F - 24.8 °F 75% 30.32 in 10.0 mi Calm Calm - N/A   Overcast
9:15 AM 32.0 °F 28.7 °F 24.8 °F 75% 30.32 in 10.0 mi SSW 3.5 mph - N/A   Overcast
9:35 AM 32.0 °F - 26.6 °F 80% 30.32 in 10.0 mi Calm Calm - N/A   Mostly Cloudy
9:55 AM 32.0 °F - 24.8 °F 75% 30.32 in 10.0 mi Calm Calm - N/A   Mostly Cloudy
10:15 AM 32.0 °F - 24.8 °F 75% 30.32 in 10.0 mi Calm Calm - N/A   Scattered Clouds
10:35 AM 33.8 °F 28.6 °F 24.8 °F 70% 30.32 in 10.0 mi South 5.8 mph - N/A   Clear
10:55 AM 33.8 °F 29.6 °F 24.8 °F 70% 30.31 in 10.0 mi SSW 4.6 mph - N/A   Clear
11:15 AM 33.8 °F 29.6 °F 24.8 °F 70% 30.30 in 10.0 mi SSW 4.6 mph - N/A   Clear
11:35 AM 35.6 °F - 24.8 °F 65% 30.29 in 10.0 mi Calm Calm - N/A   Scattered Clouds
11:55 AM 35.6 °F 32.8 °F 24.8 °F 65% 30.28 in 10.0 mi South 3.5 mph - N/A   Mostly Cloudy
12:15 PM 35.6 °F 31.7 °F 26.6 °F 70% 30.27 in 10.0 mi SSW 4.6 mph - N/A   Overcast
12:35 PM 35.6 °F - 26.6 °F 70% 30.26 in 10.0 mi Calm Calm - N/A   Overcast
12:55 PM 35.6 °F - 26.6 °F 70% 30.25 in 10.0 mi Calm Calm - N/A   Overcast
1:15 PM 35.6 °F 32.8 °F 26.6 °F 70% 30.24 in 10.0 mi South 3.5 mph - N/A   Overcast
1:35 PM 35.6 °F 30.7 °F 26.6 °F 70% 30.23 in 10.0 mi South 5.8 mph - N/A   Overcast
1:55 PM 37.4 °F - 26.6 °F 65% 30.22 in 10.0 mi Calm Calm - N/A   Overcast
2:15 PM 37.4 °F 34.9 °F 26.6 °F 65% 30.20 in 10.0 mi South 3.5 mph - N/A   Overcast
2:35 PM 37.4 °F 34.9 °F 26.6 °F 65% 30.20 in 10.0 mi South 3.5 mph - N/A   Overcast
2:55 PM 37.4 °F 34.9 °F 26.6 °F 65% 30.20 in 10.0 mi South 3.5 mph - N/A   Overcast
3:15 PM 37.4 °F - 26.6 °F 65% 30.20 in 10.0 mi Calm Calm - N/A   Overcast
3:35 PM 39.2 °F - 26.6 °F 61% 30.21 in 10.0 mi Calm Calm - N/A   Overcast
3:55 PM 37.4 °F 34.9 °F 28.4 °F 70% 30.20 in 10.0 mi SSE 3.5 mph - N/A   Overcast
4:15 PM 37.4 °F 34.9 °F 26.6 °F 65% 30.20 in 10.0 mi SSE 3.5 mph - N/A Rain Light Rain
4:35 PM 37.4 °F 34.9 °F 28.4 °F 70% 30.18 in 10.0 mi South 3.5 mph - N/A Rain Light Rain
4:55 PM 37.4 °F 34.9 °F 28.4 °F 70% 30.17 in 10.0 mi South 3.5 mph - N/A Rain Light Rain
5:15 PM 37.4 °F 34.9 °F 28.4 °F 70% 30.18 in 10.0 mi South 3.5 mph - N/A   Overcast
5:35 PM 37.4 °F 33.8 °F 28.4 °F 70% 30.18 in 10.0 mi SSW 4.6 mph - N/A   Overcast
5:55 PM 37.4 °F 34.9 °F 28.4 °F 70% 30.18 in 10.0 mi SSW 3.5 mph - N/A   Overcast
6:15 PM 37.4 °F 34.9 °F 28.4 °F 70% 30.17 in 10.0 mi South 3.5 mph - N/A   Overcast
6:35 PM 35.6 °F 32.8 °F 28.4 °F 75% 30.16 in 10.0 mi South 3.5 mph - N/A   Mostly Cloudy
7:15 PM 35.6 °F 32.8 °F 28.4 °F 75% 30.14 in 10.0 mi SSW 3.5 mph - N/A   Scattered Clouds
7:35 PM 37.4 °F - 28.4 °F 70% 30.16 in 10.0 mi Calm Calm - N/A   Mostly Cloudy
8:15 PM 37.4 °F 34.9 °F 28.4 °F 70% 30.13 in 10.0 mi SSE 3.5 mph - N/A   Overcast
8:35 PM 37.4 °F - 30.2 °F 75% 30.14 in 10.0 mi Calm Calm - N/A   Overcast
8:55 PM 37.4 °F - 30.2 °F 75% 30.14 in 10.0 mi Calm Calm - N/A   Overcast
9:15 PM 37.4 °F - 30.2 °F 75% 30.14 in 10.0 mi Calm Calm - N/A Rain Rain
9:35 PM 37.4 °F - 32.0 °F 81% 30.13 in 10.0 mi Calm Calm - N/A   Light Drizzle
9:55 PM 35.6 °F - 32.0 °F 87% 30.14 in 10.0 mi Calm Calm - N/A   Overcast
10:15 PM 35.6 °F - 32.0 °F 87% 30.13 in 10.0 mi Calm Calm - N/A   Overcast
10:35 PM 35.6 °F - 32.0 °F 87% 30.13 in 10.0 mi Calm Calm - N/A   Light Drizzle
11:15 PM 35.6 °F - 32.0 °F 87% 30.11 in 10.0 mi Calm Calm - N/A   Overcast
11:35 PM 35.6 °F - 32.0 °F 87% 30.11 in 10.0 mi Calm Calm - N/A   Light Drizzle
11:55 PM 35.6 °F - 32.0 °F 87% 30.10 in 10.0 mi Calm Calm - N/A   Overcast